Glens Falls, NY

9:51 AM EDT on October 21, 2019 (GMT -0400)
Bennett Memorial

Weather History for KGFL - August, 2019

Change the Weather History Date:

Friday, August 2, 2019

  Actual Average Record
Temperature  
Mean Temperature 67 °F 69 °F  
Max Temperature 82 °F 81 °F 96 °F (1917)
Min Temperature 51 °F 57 °F 43 °F (1929)
Degree Days  
Heating Degree Days 0 1  
Month to date heating degree days 0 2  
Since 1 June heating degree days 70 113  
Since 1 July heating degree days 0 23  
Cooling Degree Days 2 4  
Month to date cooling degree days 5 8  
Year to date cooling degree days 301 228  
Since 1 June cooling degree days 292 216  
Growing Degree Days 16 (Base 50)    
Moisture  
Dew Point 54 °F    
Average Humidity 70    
Maximum Humidity 100    
Minimum Humidity 39    
Precipitation  
Precipitation 0.00 in 0.13 in 2.00 in (1926)
Month to date precipitation 0.00 0.27  
Year to date precipitation 25.94 22.40  
Sea Level Pressure  
Sea Level Pressure 30.13 in    
Wind  
Wind Speed 2 mph (SSE)    
Max Wind Speed 10 mph    
Max Gust Speed 16 mph    
Visibility 5 miles    
Events Fog    
T = Trace of Precipitation, MM = Missing Value Source: NWS Daily Summary

Daily Weather History Graph

Daily Weather History Graph

Search for Another Location

Airport or City:

Astronomy

Aug. 02, 2019 Rise Set
Actual Time 5:45 AM EDT 8:15 PM EDT
Civil Twilight 5:12 AM EDT 8:47 PM EDT
Nautical Twilight 4:32 AM EDT 9:28 PM EDT
Astronomical Twilight 3:46 AM EDT 10:13 PM EDT
Moon 7:21 AM EDT (8/2) 9:39 PM EDT (8/2)
Length of Visible Light 15h 34m
Length of Day
14h 30m
Waxing Crescent, 4% of the Moon is Illuminated
Aug 2
Waxing Crescent
Aug 7
First Quarter
Aug 15
Full
Aug 23
Last Quarter
Aug 30
New

Hourly Weather History & Observations

Time (EDT) Temp. Heat Index Dew Point Humidity Pressure Visibility Wind Dir Wind Speed Gust Speed Precip Events Conditions
12:23 AM 57.0 °F - 55.9 °F 96% 30.14 in 1.8 mi Calm Calm - N/A   Clear
12:34 AM 57.0 °F - 55.9 °F 96% 30.14 in 0.8 mi Calm Calm - N/A   Clear
12:38 AM 57.0 °F - 55.9 °F 96% 30.14 in 2.0 mi Calm Calm - N/A   Clear
12:45 AM 55.9 °F - 55.0 °F 97% 30.14 in 10.0 mi Calm Calm - N/A   Clear
12:53 AM 55.9 °F - 55.0 °F 97% 30.14 in 5.0 mi Calm Calm - N/A   Clear
1:05 AM 55.0 °F - 54.0 °F 96% 30.14 in 1.5 mi Calm Calm - N/A   Clear
1:19 AM 55.0 °F - 55.0 °F 100% 30.14 in 3.0 mi Calm Calm - N/A   Clear
1:27 AM 55.0 °F - 54.0 °F 96% 30.14 in 1.8 mi Calm Calm - N/A   Clear
1:36 AM 55.9 °F - 54.0 °F 93% 30.15 in 0.8 mi Calm Calm - N/A   Clear
1:40 AM 55.9 °F - 54.0 °F 93% 30.15 in 2.0 mi Calm Calm - N/A   Clear
1:53 AM 55.0 °F - 54.0 °F 96% 30.14 in 10.0 mi Calm Calm - N/A   Clear
1:59 AM 54.0 °F - 53.1 °F 97% 30.14 in 1.5 mi Calm Calm - N/A   Clear
2:09 AM 54.0 °F - 53.1 °F 97% 30.14 in 0.8 mi Calm Calm - N/A   Clear
2:17 AM 55.0 °F - 53.1 °F 93% 30.15 in 2.0 mi Calm Calm - N/A   Clear
2:24 AM 55.0 °F - 55.0 °F 100% 30.15 in 10.0 mi Calm Calm - N/A   Clear
2:34 AM 54.0 °F - 54.0 °F 100% 30.15 in 0.8 mi Calm Calm - N/A   Clear
2:53 AM 53.1 °F - 53.1 °F 100% 30.14 in 0.5 mi Calm Calm - N/A Fog Fog
3:13 AM 53.1 °F - 52.0 °F 96% 30.14 in 1.2 mi Calm Calm - N/A   Clear
3:22 AM 53.1 °F - 52.0 °F 96% 30.15 in 0.8 mi Calm Calm - N/A   Clear
3:29 AM 55.0 °F - 54.0 °F 96% 30.15 in 2.0 mi Calm Calm - N/A   Clear
3:37 AM 53.1 °F - 52.0 °F 96% 30.15 in 1.2 mi Calm Calm - N/A   Clear
3:42 AM 54.0 °F - 52.0 °F 93% 30.15 in 4.0 mi Calm Calm - N/A   Clear
3:53 AM 54.0 °F - 52.0 °F 93% 30.15 in 10.0 mi Calm Calm - N/A   Clear
3:59 AM 53.1 °F - 52.0 °F 96% 30.15 in 1.5 mi Calm Calm - N/A   Clear
4:08 AM 53.1 °F - 53.1 °F 100% 30.15 in 0.5 mi Calm Calm - N/A Fog Fog
4:35 AM 52.0 °F - 52.0 °F 100% 30.15 in 1.0 mi Calm Calm - N/A   Clear
4:42 AM 53.1 °F - 52.0 °F 96% 30.15 in 0.5 mi Calm Calm - N/A Fog Fog
4:53 AM 53.1 °F - 52.0 °F 96% 30.15 in 0.5 mi Calm Calm - N/A Fog Fog
5:13 AM 52.0 °F - 52.0 °F 100% 30.16 in 3.0 mi Calm Calm - N/A   Clear
5:40 AM 51.1 °F - 50.0 °F 96% 30.16 in 1.2 mi Calm Calm - N/A   Clear
5:45 AM 51.1 °F - 50.0 °F 96% 30.16 in 0.2 mi Calm Calm - N/A Fog Fog
5:53 AM 51.1 °F - 51.1 °F 100% 30.17 in 0.2 mi Calm Calm - N/A Fog Fog
6:01 AM 52.0 °F - 51.1 °F 97% 30.16 in 1.2 mi Calm Calm - N/A   Clear
6:08 AM 53.1 °F - 51.1 °F 93% 30.17 in 10.0 mi Calm Calm - N/A   Clear
6:36 AM 54.0 °F - 53.1 °F 97% 30.16 in 4.0 mi Calm Calm - N/A   Clear
6:53 AM 54.0 °F - 53.1 °F 97% 30.16 in 10.0 mi Calm Calm - N/A   Clear
7:53 AM 61.0 °F - 57.0 °F 87% 30.17 in 10.0 mi Calm Calm - N/A   Clear
8:53 AM 66.0 °F - 57.9 °F 75% 30.18 in 10.0 mi Calm Calm - N/A   Clear
9:53 AM 71.1 °F - 55.0 °F 57% 30.17 in 10.0 mi SSE 3.5 mph - N/A   Clear
10:53 AM 75.0 °F - 53.1 °F 46% 30.17 in 9.0 mi Calm Calm - N/A   Clear
11:53 AM 77.0 °F - 50.0 °F 39% 30.16 in 10.0 mi Calm Calm - N/A   Clear
12:53 PM 79.0 °F - 51.1 °F 38% 30.13 in 10.0 mi Variable 3.5 mph - N/A   Clear
1:53 PM 79.0 °F - 52.0 °F 39% 30.11 in 10.0 mi ESE 5.8 mph - N/A   Clear
2:53 PM 81.0 °F 80.5 °F 54.0 °F 39% 30.09 in 10.0 mi South 5.8 mph - N/A   Clear
3:53 PM 81.0 °F 80.5 °F 54.0 °F 39% 30.08 in 10.0 mi SE 6.9 mph - N/A   Clear
4:53 PM 81.0 °F 80.7 °F 55.0 °F 41% 30.07 in 10.0 mi SE 10.4 mph - N/A   Clear
5:53 PM 81.0 °F 80.5 °F 54.0 °F 39% 30.06 in 10.0 mi SSE 5.8 mph - N/A   Clear
6:53 PM 78.1 °F - 60.1 °F 54% 30.06 in 10.0 mi South 3.5 mph - N/A   Clear
7:53 PM 73.9 °F - 59.0 °F 59% 30.06 in 10.0 mi Calm Calm - N/A   Clear
8:53 PM 64.9 °F - 59.0 °F 81% 30.07 in 10.0 mi Calm Calm - N/A   Clear
9:53 PM 61.0 °F - 59.0 °F 93% 30.07 in 10.0 mi Calm Calm - N/A   Clear
10:53 PM 60.1 °F - 57.9 °F 93% 30.07 in 10.0 mi Calm Calm - N/A   Clear
11:53 PM 60.1 °F - 57.9 °F 93% 30.06 in 10.0 mi Calm Calm - N/A   Clear